Hourly Weather Roundup
Issued by NWS

Home | Current Version | Previous Version | Text Only | Print | Product List | Glossary On
Versions: 1 2 3 4 5 6 7 8 9 10 11 12 13 14 15 16 17 18 19 20 21 22 23 24 25 26 27 28 29 30 31 32 33 34 35 36 37 38 39 40 41 42 43 44 45 46 47 48 49 50
698
NZUS43 KILX 051310
HWRCRS

CRS HOURLY WEATHER ROUNDUP
NATIONAL WEATHER SERVICE, LINCOLN IL
800 AM CDT THU MAY 05 2016


CITY           SKY/WX    TMP DP  RH WIND       PRES   REMARKS
CHAMPAIGN      CLOUDY    45  39  79 N18       29.93R
LAWRENCEVILLE  CLOUDY    46  39  76 N14       29.89R
PEORIA         SUNNY     45  35  68 N10G21    30.00R
SPRINGFIELD    SUNNY     47  38  71 N13       29.99R
$$


CITY           SKY/WX    TMP DP  RH WIND       PRES   REMARKS
BLOOMINGTON    MOSUNNY   43  38  82 N14       29.98R
DECATUR        CLOUDY    44  37  76 N10G20    29.95R
EFFINGHAM      PTSUNNY   45  39  79 NW8G20    29.95R
FLORA          CLOUDY    47  40  76 N13G18    29.92R
GALESBURG      SUNNY     44  38  77 N13       30.02R
JACKSONVILLE   SUNNY     47  39  72 N10       30.00R
LACON          SUNNY     43  35  72 N8        30.00R
LINCOLN        SUNNY     45  39  78 N10G18    29.98R
LITCHFIELD     SUNNY     45  35  69 N16       29.96R

CITY           SKY/WX    TMP DP  RH WIND       PRES   REMARKS
MACOMB         SUNNY     46  39  75 N13       30.04R
MATTOON        PTSUNNY   45  38  76 N16       29.92R
MOLINE         SUNNY     48  36  63 NE9       30.03R
OLNEY          CLOUDY    45  37  76 N14       29.92R
PARIS          CLOUDY    45  41  87 N8        29.92R
PONTIAC        MOSUNNY   45  39  80 N15       29.98R
QUINCY         SUNNY     48  39  71 N8        30.03R
RANTOUL        CLOUDY    46  39  78 N17       29.94R
ROBINSON       CLOUDY    45  40  85 N9G21     29.90R
TAYLORVILLE    SUNNY     43  37  78 N15       29.97R
TERRE HAUTE    CLOUDY    46  39  76 N12G21    29.88R
$$


CITY           SKY/WX    TMP DP  RH WIND       PRES   REMARKS
BURLINGTON     SUNNY     48  39  71 NE6       30.03R
CHICAGO        MOSUNNY   44  35  70 N12       29.97R
DES MOINES     MOSUNNY   52  33  48 E5        30.08R
EVANSVILLE     PTSUNNY   47  38  71 N15G21    29.87R
INDIANAPOLIS   PTSUNNY   44  38  79 N12       29.85R
KANSAS CITY    MOSUNNY   53  42  66 N6        30.06R
MILWAUKEE      PTSUNNY   44  34  67 N13       30.00R
ST LOUIS       SUNNY     51  36  56 N10       29.99R
$$





USA.gov is the U.S. government's official web portal to all federal, state and local government web resources and services.